EW0541 Weather Reports


time (UTC)temp
C
wind
direction
speed
KPH
gust
KPH
rain 1hr
cm
rain 24hr
cm
rain mn
cm
humidity
%
barometer
mb
20260505003047 19 32 1.6 0.0 0.00 0.00 0.00 46 1007.2
20260505001544 19 46 1.6 0.0 0.00 0.00 0.00 45 1007.0
20260505000047 20 173 1.6 0.0 0.00 0.00 0.00 44 1006.9
20260504234543 20 156 1.6 0.0 0.00 0.00 0.00 43 1006.9
20260504233042 21 218 1.6 0.0 0.00 0.00 0.00 42 1006.8
20260504231546 21 185 3.2 0.0 0.00 0.00 0.00 41 1006.8
20260504230045 21 212 3.2 0.0 0.00 0.00 0.00 40 1006.9
20260504224540 22 202 3.2 0.0 0.00 0.00 0.00 40 1007.1
20260504223045 22 202 3.2 0.0 0.00 0.00 0.00 38 1007.0
20260504221555 22 351 1.6 0.0 0.00 0.00 0.00 38 1007.0
20260504220038 22 190 3.2 0.0 0.00 0.00 0.00 38 1007.0
20260504214538 23 292 3.2 0.0 0.00 0.00 0.00 35 1006.9
20260504213052 23 284 4.8 0.0 0.00 0.00 0.00 35 1006.9
20260504211541 23 176 3.2 0.0 0.00 0.00 0.00 34 1006.9
20260504210035 23 213 3.2 0.0 0.00 0.00 0.00 34 1006.9
20260504204534 23 178 3.2 0.0 0.00 0.00 0.00 34 1007.0
20260504203045 23 193 3.2 0.0 0.00 0.00 0.00 37 1007.1
20260504201531 23 164 4.8 0.0 0.00 0.00 0.00 34 1007.2
20260504200029 23 156 3.2 0.0 0.00 0.00 0.00 35 1007.6
20260504194531 23 220 4.8 0.0 0.00 0.00 0.00 35 1007.8
20260504193025 22 199 4.8 0.0 0.00 0.00 0.00 36 1008.0
20260504191534 22 265 4.8 0.0 0.00 0.00 0.00 35 1008.3
20260504190022 22 279 6.4 0.0 0.00 0.00 0.00 35 1008.5
20260504184521 22 250 4.8 0.0 0.00 0.00 0.00 37 1008.6
20260504183017 22 196 6.4 0.0 0.00 0.00 0.00 35 1008.7
20260504181518 22 215 3.2 0.0 0.00 0.00 0.00 35 1008.8
20260504180016 21 271 4.8 0.0 0.00 0.00 0.00 35 1009.2
20260504174511 21 154 6.4 0.0 0.00 0.00 0.00 35 1009.2
20260504173010 21 167 4.8 0.0 0.00 0.00 0.00 36 1009.4
20260504171507 21 260 6.4 0.0 0.00 0.00 0.00 36 1009.8
20260504081538 3 265 0.0 0.0 0.00 0.00 0.00 81 1012.9
20260504050020 5 265 0.0 0.0 0.00 0.00 0.00 75 1013.2
20260504044517 6 265 0.0 0.0 0.00 0.00 0.00 74 1013.1
20260504043016 6 265 0.0 0.0 0.00 0.00 0.00 74 1013.0
20260504041512 6 265 0.0 0.0 0.00 0.00 0.00 71 1012.9
20260504040024 6 265 0.0 0.0 0.00 0.00 0.00 70 1012.8
20260504034509 7 265 0.0 0.0 0.00 0.00 0.00 69 1012.8
20260504033008 7 265 0.0 0.0 0.00 0.00 0.00 68 1012.7
20260504031508 7 265 0.0 0.0 0.00 0.00 0.00 67 1012.7
20260504030009 7 265 0.0 0.0 0.00 0.00 0.00 66 1012.5
20260504024508 8 265 0.0 0.0 0.00 0.00 0.00 66 1012.5
20260504023006 8 265 0.0 0.0 0.00 0.00 0.00 64 1012.5
20260504021506 9 265 0.0 0.0 0.00 0.00 0.00 61 1012.6
20260504020005 10 265 0.0 0.0 0.00 0.00 0.00 58 1012.5
20260504014516 10 265 0.0 0.0 0.00 0.00 0.00 56 1012.4
20260504013005 11 265 0.0 0.0 0.00 0.00 0.00 52 1012.2
20260504011504 11 265 0.0 0.0 0.00 0.00 0.00 49 1012.1
20260504010004 12 265 0.0 0.0 0.00 0.00 0.00 49 1012.1
20260504004504 12 265 0.0 0.0 0.00 0.00 0.00 46 1011.9